[[{"header":{"parameterUnit":"m.s-1","parameterCategory":1,"la1":30.2991,"la2":30.254,"lo1":-89.0895,"lo2":-89.0444,"dy":0.0017,"dx":0.0017,"nx":28,"ny":28,"refTime":"2025-03-25T03:00:00:Z","depth":0,"parameterNumber":2,"parameterNumberName":"U-component_of_WINDS"},"data":[0,0,0,0,0,0,0,0,0,0,0,0,0,0,0,0,0,0,0,0,0,0,0,0,0,0,0,0,0,0,0,0,0,0,0,0,0,0,0,0,0,0,0,0,0,0,0,0,0,0,0,0,0,0,0,0,0,0,-0.8015,-0.8014,0,-0.7957,-0.7956,-0.7956,-0.7862,-0.7861,-0.7859,-0.7857,-0.7802,-0.7802,-0.7802,0,0,0,0,0,0,0,0,0,0,0,0,0,-0.8048,-0.8048,-0.8015,-0.8014,-0.8013,-0.7957,-0.7956,-0.7955,-0.7863,-0.7861,-0.7858,-0.7857,-0.7802,-0.7802,-0.7802,0,0,0,0,0,0,0,0,0,0,0,0,0,-0.8017,-0.8048,-0.8015,-0.796,-0.7954,-0.7957,-0.7956,-0.7955,-0.7863,-0.7861,-0.7858,-0.7856,-0.7802,-0.7802,-0.7802,-0.7855,0,0,-0.7803,-0.7803,0,0,0,0,0,0,0,0,-0.8019,-0.8015,-0.7969,-0.7964,-0.7958,-0.7914,-0.7948,-0.7922,-0.7864,-0.7898,-0.7857,-0.7854,-0.7842,-0.7838,-0.7833,-0.7852,-0.785,-0.7803,-0.7803,-0.7803,-0.7803,0,0,0,0,0,0,0,-0.8021,-0.8017,-0.7992,-0.7968,-0.7961,-0.794,-0.7932,-0.7942,-0.7885,-0.7895,-0.7888,-0.7882,-0.7838,-0.7833,-0.7831,-0.7849,-0.7803,-0.7803,-0.7803,-0.7803,-0.791,-0.7913,0,0,0,0,0,0,-0.8031,-0.802,-0.7994,-0.799,-0.7982,-0.7941,-0.7933,-0.7931,-0.7885,-0.7875,-0.7884,-0.7878,-0.7834,-0.7831,-0.7829,-0.7889,-0.7803,-0.7803,-0.7803,-0.7907,-0.7911,-0.7913,0,0,0,0,0,0,-0.8032,-0.8029,-0.7996,-0.8003,-0.7997,-0.7943,-0.7942,-0.7931,-0.7926,-0.7877,-0.7866,-0.789,-0.7832,-0.7829,-0.7849,-0.7886,-0.7803,-0.7804,-0.7904,-0.7908,-0.7912,-0.8008,0,0,0,0,0,0,-0.8033,-0.803,-0.8049,-0.8004,-0.7997,-0.8016,-0.7944,-0.7932,-0.7926,-0.7917,-0.7879,-0.787,-0.783,-0.785,-0.785,-0.7884,-0.7804,-0.7901,-0.7906,-0.7911,-0.8002,-0.8015,-0.8027,0,0,0,0,0,-0.8034,-0.8079,-0.805,-0.8047,-0.8019,-0.8019,-0.8015,-0.7966,-0.7929,-0.7948,-0.7917,-0.7872,-0.7881,-0.7852,-0.7852,-0.7887,-0.7898,-0.7904,-0.791,-0.7996,-0.8012,-0.8026,0,0,0,0,0,0,-0.813,-0.8072,-0.8039,-0.807,-0.805,-0.8003,-0.8025,-0.7985,-0.7976,-0.7968,-0.7909,-0.7901,-0.793,-0.791,-0.7879,-0.7936,-0.7883,-0.7889,-0.7948,-0.7963,-0.7976,-0.7981,-0.7804,0,0,0,0,0,-0.8154,-0.8157,-0.8107,-0.8139,-0.813,-0.808,-0.8078,-0.8042,-0.8019,-0.8011,-0.798,-0.7961,-0.796,-0.796,-0.7956,-0.7998,-0.7989,-0.8022,-0.8034,-0.8045,-0.8052,-0.8073,-0.8088,-0.7934,-0.7934,-0.7933,0,0,-0.8205,-0.8174,-0.818,-0.8157,-0.8137,-0.8144,-0.8073,-0.8082,-0.8087,-0.8012,-0.803,-0.8007,-0.7982,-0.8013,-0.8026,-0.7998,-0.8092,-0.8053,-0.8061,-0.8062,-0.8081,-0.8096,-0.8109,-0.7938,-0.7937,-0.7936,0,0,-0.8301,-0.8277,-0.8302,-0.8283,-0.8253,-0.8219,-0.8226,-0.8184,-0.8166,-0.8182,-0.8127,-0.8132,-0.813,-0.8115,-0.8107,-0.8198,-0.8156,-0.8198,-0.8264,-0.8286,-0.8298,-0.8309,-0.8343,-0.8355,-0.8204,-0.8205,-0.8205,0,-0.8369,-0.8374,-0.832,-0.8332,-0.8325,-0.8256,-0.8282,-0.8267,-0.8238,-0.8235,-0.8204,-0.8201,-0.8179,-0.8207,-0.8229,-0.8224,-0.8231,-0.8203,-0.8301,-0.8311,-0.832,-0.8352,-0.8364,-0.821,-0.8209,-0.8209,-0.8208,0,-0.8459,-0.8464,-0.8488,-0.8461,-0.8456,-0.8475,-0.8425,-0.8427,-0.8391,-0.8361,-0.838,-0.8351,-0.834,-0.8344,-0.831,-0.8367,-0.8351,-0.8311,-0.8257,-0.8341,-0.837,-0.8381,-0.8218,-0.8216,-0.8214,-0.8213,0,0,-0.8615,-0.8557,-0.8567,-0.8554,-0.8516,-0.852,-0.8537,-0.8525,-0.8528,-0.8511,-0.8525,-0.8525,-0.8488,-0.8479,-0.8443,-0.8462,-0.8538,-0.842,-0.8418,-0.8444,-0.8601,-0.8632,-0.8647,-0.8509,-0.8511,-0.8513,-0.8604,0,-0.8704,-0.8728,-0.868,-0.8716,-0.8721,-0.8656,-0.867,-0.865,-0.8622,-0.8623,-0.8593,-0.8595,-0.8545,-0.8539,-0.8555,-0.8525,-0.8569,-0.8518,-0.8523,-0.8524,-0.8533,-0.8662,-0.8695,-0.8782,-0.8614,-0.8616,-0.8617,0,-0.8812,-0.8799,-0.8836,-0.8797,-0.8797,-0.8811,-0.8797,-0.8798,-0.8774,-0.8752,-0.8743,-0.87,-0.8715,-0.8661,-0.8682,-0.8649,-0.8648,-0.8633,-0.8636,-0.8636,-0.8577,-0.8667,-0.8808,-0.8822,-0.8634,-0.8633,-0.8632,0,-0.8924,-0.8916,-0.8936,-0.8928,-0.8882,-0.8894,-0.8875,-0.8848,-0.8845,-0.8833,-0.883,-0.8821,-0.8816,-0.8811,-0.8767,-0.8732,-0.8794,-0.8736,-0.8778,-0.878,-0.8796,-0.8795,-0.894,-0.8793,-0.8793,-0.8792,-0.8792,0,-0.903,-0.9055,-0.8986,-0.8999,-0.9026,-0.8971,-0.9,-0.8975,-0.8952,-0.896,-0.8903,-0.8913,-0.8853,-0.8857,-0.8823,-0.8846,-0.8844,-0.8828,-0.8819,-0.8834,-0.8837,-0.8834,-0.8828,-0.8796,-0.8795,-0.8794,-0.8794,0,-0.916,-0.9114,-0.9133,-0.9088,-0.9077,-0.91,-0.9062,-0.9073,-0.9041,-0.9053,-0.9052,-0.9004,-0.9005,-0.896,-0.8952,-0.8929,-0.8968,-0.8948,-0.8977,-0.8971,-0.9016,-0.9013,-0.9166,-0.9184,-0.9023,-0.9025,-0.9026,0,-0.9231,-0.9249,-0.9206,-0.9207,-0.9191,-0.9193,-0.9189,-0.9135,-0.9134,-0.9108,-0.9123,-0.9119,-0.9113,-0.9118,-0.9083,-0.9077,-0.9057,-0.9111,-0.9056,-0.9071,-0.906,-0.906,-0.9062,-0.9123,-0.9125,-0.9127,-0.9128,0,-0.9363,-0.934,-0.9335,-0.9324,-0.932,-0.9309,-0.9293,-0.9298,-0.9239,-0.9241,-0.924,-0.9236,-0.9228,-0.9225,-0.9213,-0.9195,-0.9153,-0.9145,-0.9155,-0.9172,-0.9188,-0.9182,-0.901,-0.9143,-0.9141,-0.914,-0.9139,-0.9139,-0.9467,-0.948,-0.9452,-0.9449,-0.9432,-0.9419,-0.9428,-0.9397,-0.9396,-0.9384,-0.9353,-0.9358,-0.9335,-0.9313,-0.93,-0.9304,-0.9278,-0.9291,-0.9295,-0.93,-0.9309,-0.9186,-0.9302,-0.9301,-0.9301,-0.93,-0.93,0,-0.9597,-0.9576,-0.9574,-0.9554,-0.9553,-0.9511,-0.9492,-0.9494,-0.9499,-0.948,-0.9475,-0.9476,-0.9474,-0.9438,-0.9432,-0.9442,-0.9423,-0.9443,-0.9442,-0.944,-0.9332,-0.9325,-0.9459,-0.9459,-0.9459,-0.9459,-0.9459,-0.9459,-0.9665,-0.9686,-0.966,-0.9672,-0.965,-0.9654,-0.9647,-0.9636,-0.962,-0.9623,-0.9621,-0.9597,-0.9572,-0.9563,-0.956,-0.9549,-0.955,-0.9577,-0.9561,-0.9462,-0.9447,-0.9432,-0.9425,-0.9578,-0.9578,-0.9668,-0.9668,-0.9669]},{"header":{"parameterUnit":"m.s-1","parameterCategory":1,"la1":30.2991,"la2":30.254,"lo1":-89.0895,"lo2":-89.0444,"dy":0.0017,"dx":0.0017,"nx":28,"ny":28,"refTime":"2025-03-25T03:00:00:Z","depth":0,"parameterNumber":3,"parameterNumberName":"V-component_of_WINDS"},"data":[0,0,0,0,0,0,0,0,0,0,0,0,0,0,0,0,0,0,0,0,0,0,0,0,0,0,0,0,0,0,0,0,0,0,0,0,0,0,0,0,0,0,0,0,0,0,0,0,0,0,0,0,0,0,0,0,0,0,-0.9569,-0.9569,0,-0.9569,-0.9569,-0.9569,-0.9545,-0.9544,-0.9544,-0.9543,-0.9543,-0.9543,-0.9544,0,0,0,0,0,0,0,0,0,0,0,0,0,-0.955,-0.955,-0.9569,-0.9569,-0.9569,-0.9569,-0.9569,-0.9569,-0.9545,-0.9544,-0.9544,-0.9543,-0.9543,-0.9543,-0.9544,0,0,0,0,0,0,0,0,0,0,0,0,0,-0.9555,-0.955,-0.9569,-0.9557,-0.9556,-0.9569,-0.9569,-0.9569,-0.9545,-0.9544,-0.9543,-0.9542,-0.9542,-0.9543,-0.9544,-0.9568,0,0,-0.9547,-0.9547,0,0,0,0,0,0,0,0,-0.9554,-0.9555,-0.9559,-0.9558,-0.9557,-0.9556,-0.9562,-0.9569,-0.9545,-0.9549,-0.9543,-0.9542,-0.9548,-0.9548,-0.955,-0.9568,-0.9568,-0.9547,-0.9547,-0.9548,-0.9548,0,0,0,0,0,0,0,-0.9554,-0.9555,-0.9569,-0.9559,-0.9558,-0.9552,-0.9552,-0.9563,-0.9554,-0.9549,-0.9547,-0.9548,-0.9547,-0.9549,-0.955,-0.9568,-0.9547,-0.9547,-0.9548,-0.9548,-0.9607,-0.9608,0,0,0,0,0,0,-0.9555,-0.9555,-0.9569,-0.9569,-0.9553,-0.9553,-0.9553,-0.9557,-0.9554,-0.9552,-0.9548,-0.9546,-0.9548,-0.9549,-0.955,-0.9579,-0.9548,-0.9548,-0.9549,-0.9606,-0.9607,-0.9608,0,0,0,0,0,0,-0.9555,-0.9557,-0.9569,-0.9562,-0.9563,-0.9555,-0.956,-0.9558,-0.956,-0.9553,-0.9552,-0.9552,-0.9548,-0.9549,-0.9564,-0.9578,-0.9549,-0.955,-0.9604,-0.9606,-0.9607,-0.9636,0,0,0,0,0,0,-0.9555,-0.9557,-0.9566,-0.9562,-0.9563,-0.9583,-0.9561,-0.9558,-0.9562,-0.9559,-0.9557,-0.9555,-0.9547,-0.9563,-0.9565,-0.9579,-0.955,-0.9603,-0.9605,-0.9607,-0.9634,-0.9638,-0.9642,0,0,0,0,0,-0.9554,-0.9574,-0.9566,-0.9568,-0.9574,-0.9584,-0.9585,-0.9575,-0.9563,-0.9572,-0.9568,-0.9555,-0.9576,-0.9565,-0.9567,-0.9581,-0.9602,-0.9605,-0.9607,-0.9632,-0.9637,-0.9642,0,0,0,0,0,0,-0.9579,-0.9573,-0.9565,-0.9584,-0.9585,-0.958,-0.9591,-0.9581,-0.9585,-0.9583,-0.957,-0.957,-0.9587,-0.9586,-0.9573,-0.9605,-0.9587,-0.959,-0.9605,-0.9611,-0.9615,-0.9615,-0.9551,0,0,0,0,0,-0.9587,-0.9595,-0.9589,-0.9606,-0.9607,-0.9599,-0.9603,-0.9595,-0.9596,-0.9596,-0.9593,-0.9594,-0.9601,-0.9605,-0.9611,-0.9633,-0.9633,-0.9644,-0.9649,-0.9652,-0.9655,-0.9667,-0.9673,-0.9616,-0.9616,-0.9616,0,0,-0.9602,-0.96,-0.9606,-0.9611,-0.9611,-0.962,-0.96,-0.961,-0.9617,-0.9598,-0.9612,-0.961,-0.961,-0.9629,-0.9637,-0.9628,-0.967,-0.9655,-0.9658,-0.9659,-0.967,-0.9676,-0.968,-0.9617,-0.9617,-0.9617,0,0,-0.9636,-0.9635,-0.965,-0.965,-0.9651,-0.9645,-0.9649,-0.9646,-0.9644,-0.9658,-0.9644,-0.9652,-0.9664,-0.9665,-0.9667,-0.9703,-0.9692,-0.9705,-0.9727,-0.9739,-0.9744,-0.9748,-0.9761,-0.9766,-0.9707,-0.9708,-0.9708,0,-0.9656,-0.9669,-0.9659,-0.967,-0.9673,-0.9657,-0.9672,-0.9673,-0.9675,-0.9678,-0.9667,-0.9683,-0.9681,-0.9701,-0.971,-0.9712,-0.9716,-0.9705,-0.9744,-0.9748,-0.9752,-0.9764,-0.9769,-0.9709,-0.9709,-0.9709,-0.9709,0,-0.9694,-0.9704,-0.9716,-0.9719,-0.9723,-0.9736,-0.9728,-0.9733,-0.9726,-0.9722,-0.9737,-0.9735,-0.9741,-0.9745,-0.9737,-0.9764,-0.9758,-0.9746,-0.9728,-0.9759,-0.9771,-0.9775,-0.9712,-0.9711,-0.971,-0.971,0,0,-0.9743,-0.9741,-0.9745,-0.9747,-0.9746,-0.9754,-0.9766,-0.9772,-0.9778,-0.978,-0.9791,-0.9802,-0.9791,-0.9794,-0.9786,-0.9797,-0.9826,-0.9784,-0.9783,-0.9792,-0.9856,-0.9866,-0.9871,-0.9819,-0.982,-0.982,-0.9856,0,-0.9777,-0.9799,-0.979,-0.9813,-0.9822,-0.9807,-0.9818,-0.9819,-0.9816,-0.9823,-0.9819,-0.9828,-0.9812,-0.9814,-0.9824,-0.982,-0.9839,-0.9818,-0.9829,-0.983,-0.9831,-0.9877,-0.9887,-0.9921,-0.9861,-0.9862,-0.9862,0,-0.9819,-0.9823,-0.9847,-0.9846,-0.9849,-0.986,-0.9865,-0.9872,-0.9873,-0.987,-0.9873,-0.9864,-0.9877,-0.9859,-0.9877,-0.9863,-0.9867,-0.9866,-0.9867,-0.9868,-0.9848,-0.9881,-0.9932,-0.9937,-0.9869,-0.9869,-0.9868,0,-0.9853,-0.9865,-0.9881,-0.9883,-0.9882,-0.989,-0.9889,-0.989,-0.9894,-0.9899,-0.9901,-0.9907,-0.9911,-0.9916,-0.9908,-0.9896,-0.9928,-0.9909,-0.9926,-0.9927,-0.9934,-0.9934,-0.9988,-0.9936,-0.9936,-0.9936,-0.9935,0,-0.9892,-0.9907,-0.9897,-0.9907,-0.9924,-0.9914,-0.9931,-0.9929,-0.993,-0.994,-0.9927,-0.9936,-0.9925,-0.9934,-0.9928,-0.9944,-0.9946,-0.9944,-0.9942,-0.9946,-0.9946,-0.9949,-0.9946,-0.9937,-0.9937,-0.9936,-0.9936,0,-0.9933,-0.9927,-0.9944,-0.9942,-0.9941,-0.9954,-0.9952,-0.9962,-0.9958,-0.997,-0.9973,-0.9966,-0.9976,-0.9969,-0.9978,-0.9974,-0.9996,-0.9991,-0.9996,-0.9995,-1.0013,-1.0011,-1.0071,-1.0078,-1.0021,-1.0021,-1.0022,0,-0.9959,-0.997,-0.997,-0.9975,-0.9976,-0.9985,-0.999,-0.9981,-0.9986,-0.9989,-0.9998,-1.0007,-1.0013,-1.0029,-1.0025,-1.0033,-1.0028,-1.0048,-1.0029,-1.0032,-1.0029,-1.0029,-1.003,-1.0052,-1.0053,-1.0053,-1.0054,0,-1.0005,-1.0001,-1.0009,-1.0015,-1.0021,-1.0026,-1.003,-1.0035,-1.0026,-1.0033,-1.0042,-1.0047,-1.0057,-1.0066,-1.0072,-1.0072,-1.0062,-1.006,-1.0064,-1.0068,-1.0071,-1.0071,-1.0007,-1.0059,-1.0058,-1.0058,-1.0058,-1.0057,-1.0039,-1.005,-1.0051,-1.006,-1.0062,-1.0066,-1.0075,-1.0072,-1.008,-1.0088,-1.0082,-1.0094,-1.0095,-1.0103,-1.0104,-1.0113,-1.0105,-1.0111,-1.0113,-1.0115,-1.0118,-1.0069,-1.0114,-1.0114,-1.0114,-1.0114,-1.0114,0,-1.0086,-1.0086,-1.0094,-1.01,-1.0107,-1.0097,-1.0101,-1.0108,-1.0119,-1.0121,-1.0128,-1.0139,-1.0148,-1.0146,-1.0154,-1.0162,-1.0157,-1.0164,-1.0164,-1.0164,-1.0125,-1.012,-1.0168,-1.0168,-1.0168,-1.0168,-1.0168,-1.0168,-1.011,-1.0127,-1.0124,-1.0142,-1.0143,-1.0155,-1.0158,-1.0162,-1.0164,-1.0177,-1.0185,-1.0183,-1.0184,-1.0192,-1.02,-1.0199,-1.0203,-1.0211,-1.0209,-1.0172,-1.0167,-1.0162,-1.0158,-1.0212,-1.0212,-1.0248,-1.0248,-1.0248]}]]